[[{"header":{"parameterUnit":"m.s-1","parameterCategory":1,"la1":30.2991,"la2":30.254,"lo1":-89.0895,"lo2":-89.0444,"dy":0.0017,"dx":0.0017,"nx":28,"ny":28,"refTime":"2024-08-09T21:00:00:Z","depth":0,"parameterNumber":2,"parameterNumberName":"U-component_of_WINDS"},"data":[0,0,0,0,0,0,0,0,0,0,0,0,0,0,0,0,0,0,0,0,0,0,0,0,0,0,0,0,0,0,0,0,0,0,0,0,0,0,0,0,0,0,0,0,0,0,0,0,0,0,0,0,0,0,0,0,0,0,1.7951,1.7953,0,1.8133,1.8135,1.8137,1.8172,1.8171,1.8169,1.8168,1.8358,1.8364,1.837,0,0,0,0,0,0,0,0,0,0,0,0,0,1.7638,1.7643,1.7951,1.7953,1.7955,1.8132,1.8135,1.8137,1.8173,1.8171,1.8169,1.8167,1.8356,1.8363,1.8371,0,0,0,0,0,0,0,0,0,0,0,0,0,1.7792,1.7645,1.795,1.7994,1.8,1.8132,1.8135,1.8138,1.8173,1.8171,1.8169,1.8167,1.8353,1.8362,1.8372,1.8474,0,0,1.8401,1.8405,0,0,0,0,0,0,0,0,1.7783,1.7803,1.7986,1.7991,1.7998,1.8127,1.8094,1.8251,1.8173,1.8107,1.8168,1.8165,1.8283,1.8298,1.8337,1.8483,1.8491,1.8402,1.8408,1.8412,1.8415,0,0,0,0,0,0,0,1.7772,1.7796,1.8023,1.7988,1.7996,1.8006,1.8025,1.8124,1.8205,1.8113,1.8116,1.8137,1.8286,1.8328,1.8342,1.8494,1.8402,1.841,1.8416,1.842,1.8732,1.8734,0,0,0,0,0,0,1.7753,1.7787,1.8017,1.8028,1.7883,1.8013,1.8035,1.8088,1.8204,1.822,1.8138,1.8138,1.8313,1.8331,1.8349,1.8475,1.8412,1.8421,1.8426,1.8729,1.8733,1.8735,0,0,0,0,0,0,1.7747,1.7774,1.801,1.7908,1.7939,1.8021,1.808,1.8093,1.8135,1.8223,1.8238,1.8166,1.8312,1.8335,1.8442,1.8482,1.8425,1.8434,1.8726,1.873,1.8734,1.8729,0,0,0,0,0,0,1.7737,1.7771,1.781,1.7909,1.7944,1.8099,1.8083,1.8098,1.8151,1.8151,1.8253,1.8268,1.8312,1.8428,1.8452,1.8494,1.8441,1.8723,1.8728,1.8733,1.8726,1.8732,1.8737,0,0,0,0,0,1.7726,1.7802,1.7812,1.7839,1.7995,1.8101,1.8122,1.817,1.8154,1.8194,1.8251,1.8265,1.8474,1.8438,1.8466,1.8512,1.8721,1.8727,1.8732,1.8723,1.8731,1.8737,0,0,0,0,0,0,1.7707,1.7816,1.7828,1.7938,1.801,1.8107,1.8159,1.8176,1.8255,1.8253,1.831,1.8333,1.8436,1.8485,1.8443,1.8617,1.8597,1.8608,1.858,1.8588,1.8594,1.858,1.8449,0,0,0,0,0,1.7715,1.7792,1.7884,1.7972,1.8007,1.8077,1.8125,1.8156,1.8233,1.8264,1.8329,1.8405,1.8488,1.8541,1.8622,1.8733,1.8756,1.8779,1.8784,1.8789,1.8798,1.8859,1.887,1.8754,1.8754,1.8754,0,0,1.7734,1.7803,1.7848,1.797,1.8029,1.8108,1.8102,1.8186,1.8245,1.8278,1.8381,1.8432,1.852,1.8629,1.8681,1.8673,1.8835,1.8796,1.8799,1.8806,1.8866,1.8877,1.8887,1.8758,1.8757,1.8757,0,0,1.7807,1.7867,1.7947,1.8006,1.8096,1.8142,1.8161,1.8256,1.829,1.8395,1.842,1.8493,1.8634,1.8696,1.8745,1.8842,1.8857,1.8867,1.8897,1.8956,1.8965,1.8974,1.9007,1.9019,1.8876,1.8876,1.8876,0,1.7818,1.7937,1.7986,1.8068,1.8121,1.8153,1.8234,1.829,1.8402,1.8438,1.8428,1.8606,1.8668,1.8791,1.8814,1.8854,1.8878,1.8855,1.896,1.8969,1.8977,1.901,1.9022,1.8876,1.8876,1.8876,1.8876,0,1.7946,1.8028,1.8082,1.8188,1.8247,1.8329,1.839,1.8445,1.847,1.8517,1.8624,1.8699,1.8796,1.8828,1.8854,1.8955,1.8948,1.8948,1.8929,1.8988,1.9019,1.9032,1.8877,1.8877,1.8877,1.8877,0,0,1.8012,1.8143,1.8162,1.821,1.8311,1.8376,1.8459,1.8552,1.8597,1.8674,1.8745,1.8864,1.8865,1.8921,1.8955,1.9008,1.9078,1.9002,1.9005,1.9012,1.9193,1.9191,1.9204,1.9089,1.9092,1.9094,1.9185,0,1.8096,1.8244,1.829,1.8414,1.849,1.8522,1.8594,1.8665,1.8711,1.8783,1.8835,1.8918,1.8913,1.8947,1.9001,1.9058,1.9115,1.9052,1.9156,1.9159,1.9131,1.9221,1.9219,1.9301,1.9198,1.92,1.9202,0,1.8214,1.8291,1.8422,1.8513,1.8547,1.8611,1.8699,1.8768,1.8849,1.8879,1.8941,1.8971,1.906,1.9036,1.916,1.9116,1.9161,1.9196,1.92,1.9211,1.9183,1.9233,1.9329,1.934,1.9222,1.922,1.9219,0,1.8247,1.8383,1.8479,1.852,1.8629,1.8673,1.872,1.8799,1.8852,1.893,1.8965,1.9053,1.9101,1.9169,1.9222,1.92,1.934,1.9321,1.9367,1.9366,1.9394,1.9392,1.9498,1.9426,1.9426,1.9425,1.9425,0,1.8335,1.8414,1.8495,1.8554,1.8643,1.8696,1.8783,1.8833,1.8903,1.8972,1.9006,1.907,1.9137,1.921,1.9253,1.9347,1.9369,1.9396,1.9406,1.9393,1.9389,1.9422,1.9417,1.9429,1.9428,1.9427,1.9427,0,1.8386,1.8444,1.855,1.8644,1.867,1.8731,1.8812,1.8871,1.8919,1.9006,1.903,1.9105,1.9194,1.9253,1.9367,1.9395,1.9498,1.9508,1.947,1.9475,1.9517,1.9511,1.9647,1.9667,1.9583,1.9583,1.9584,0,1.8438,1.8499,1.86,1.8648,1.8695,1.8773,1.8827,1.8882,1.8937,1.9033,1.908,1.917,1.9245,1.9385,1.9451,1.9538,1.9549,1.9591,1.9562,1.9546,1.9548,1.9543,1.9549,1.9595,1.9595,1.9596,1.9596,0,1.8524,1.8549,1.8624,1.871,1.8773,1.8843,1.8914,1.8952,1.902,1.908,1.917,1.9228,1.9343,1.9432,1.9526,1.9576,1.9597,1.9605,1.962,1.9605,1.958,1.9593,1.948,1.9601,1.9601,1.96,1.96,1.96,1.8576,1.8631,1.871,1.8793,1.8852,1.8917,1.8976,1.9031,1.9107,1.9204,1.9233,1.9326,1.9406,1.9533,1.9585,1.9659,1.9655,1.9677,1.9683,1.9687,1.9686,1.9569,1.9677,1.9677,1.9676,1.9676,1.9676,0,1.8662,1.8714,1.879,1.8887,1.8953,1.8966,1.9045,1.9099,1.9181,1.9253,1.9325,1.9429,1.9515,1.9588,1.9677,1.9723,1.9735,1.9745,1.9741,1.9752,1.9685,1.9662,1.9733,1.9733,1.9733,1.9733,1.9733,1.9733,1.8714,1.8808,1.8843,1.8966,1.9019,1.9109,1.9153,1.9213,1.9271,1.9384,1.9456,1.9502,1.9574,1.9669,1.975,1.9769,1.98,1.9807,1.9828,1.9764,1.9757,1.9751,1.973,1.9813,1.9813,1.9889,1.9889,1.989]},{"header":{"parameterUnit":"m.s-1","parameterCategory":1,"la1":30.2991,"la2":30.254,"lo1":-89.0895,"lo2":-89.0444,"dy":0.0017,"dx":0.0017,"nx":28,"ny":28,"refTime":"2024-08-09T21:00:00:Z","depth":0,"parameterNumber":3,"parameterNumberName":"V-component_of_WINDS"},"data":[0,0,0,0,0,0,0,0,0,0,0,0,0,0,0,0,0,0,0,0,0,0,0,0,0,0,0,0,0,0,0,0,0,0,0,0,0,0,0,0,0,0,0,0,0,0,0,0,0,0,0,0,0,0,0,0,0,0,1.8655,1.8656,0,1.874,1.8741,1.8742,1.8694,1.8691,1.8689,1.8687,1.8777,1.8782,1.8786,0,0,0,0,0,0,0,0,0,0,0,0,0,1.8449,1.8453,1.8654,1.8656,1.8657,1.874,1.8741,1.8742,1.8694,1.8691,1.8688,1.8686,1.8776,1.8781,1.8787,0,0,0,0,0,0,0,0,0,0,0,0,0,1.8537,1.8455,1.8654,1.8643,1.8642,1.874,1.8741,1.8742,1.8695,1.8691,1.8688,1.8684,1.8774,1.8781,1.8788,1.8902,0,0,1.8809,1.8812,0,0,0,0,0,0,0,0,1.8532,1.8545,1.8643,1.8644,1.8644,1.8702,1.8702,1.8796,1.8696,1.8675,1.8687,1.8682,1.8756,1.8764,1.8788,1.8906,1.891,1.881,1.8814,1.8817,1.8819,0,0,0,0,0,0,0,1.8526,1.8541,1.8688,1.8645,1.8645,1.8633,1.8641,1.8719,1.8734,1.8677,1.8673,1.8684,1.8755,1.8781,1.879,1.8912,1.8809,1.8816,1.882,1.8823,1.9122,1.9126,0,0,0,0,0,0,1.8521,1.8536,1.8686,1.8691,1.8578,1.8639,1.8649,1.8687,1.8733,1.8737,1.8687,1.8681,1.8771,1.8782,1.8793,1.8925,1.8817,1.8823,1.8827,1.9118,1.9123,1.9127,0,0,0,0,0,0,1.8517,1.8535,1.8682,1.8613,1.863,1.8647,1.869,1.8691,1.8717,1.8741,1.8744,1.8711,1.8769,1.8783,1.8874,1.8928,1.8826,1.8833,1.9114,1.912,1.9125,1.9194,0,0,0,0,0,0,1.8511,1.8533,1.8578,1.8614,1.8634,1.8762,1.8694,1.8695,1.8729,1.8722,1.8764,1.8768,1.8767,1.8863,1.8881,1.8936,1.8838,1.9109,1.9117,1.9123,1.9187,1.9202,1.9214,0,0,0,0,0,1.8504,1.8596,1.858,1.8598,1.869,1.8766,1.8777,1.8773,1.8733,1.8777,1.8792,1.8767,1.8919,1.8873,1.8892,1.895,1.9106,1.9114,1.9123,1.9181,1.9199,1.9214,0,0,0,0,0,0,1.8568,1.86,1.8583,1.869,1.8725,1.8757,1.8813,1.8793,1.8842,1.8834,1.8828,1.8837,1.8931,1.895,1.8898,1.906,1.9006,1.9019,1.9044,1.9061,1.9074,1.9067,1.8844,0,0,0,0,0,1.8594,1.8652,1.8678,1.877,1.8788,1.8797,1.883,1.8824,1.886,1.8875,1.8897,1.8934,1.8989,1.9027,1.908,1.919,1.9196,1.9239,1.9252,1.9263,1.9274,1.9328,1.9346,1.9155,1.9155,1.9155,0,0,1.865,1.8674,1.8712,1.8783,1.8809,1.8869,1.881,1.8878,1.8921,1.8886,1.8971,1.8988,1.9029,1.9128,1.9173,1.9147,1.9327,1.9274,1.9282,1.9287,1.9339,1.9357,1.9373,1.9161,1.916,1.9159,0,0,1.878,1.8806,1.8883,1.8909,1.8949,1.8953,1.8972,1.9006,1.9015,1.9101,1.9074,1.9126,1.9224,1.9252,1.9279,1.9414,1.9392,1.9432,1.9502,1.9555,1.957,1.9583,1.9628,1.9644,1.9443,1.9443,1.9443,0,1.8844,1.8933,1.8925,1.8992,1.9022,1.899,1.9066,1.9093,1.9149,1.917,1.9139,1.9257,1.9283,1.9386,1.9418,1.9443,1.9461,1.9427,1.9568,1.9581,1.9594,1.9636,1.9653,1.9448,1.9447,1.9447,1.9446,0,1.9007,1.9069,1.9126,1.9176,1.9213,1.9285,1.9287,1.9325,1.9314,1.9322,1.9407,1.9436,1.9492,1.9516,1.9508,1.9617,1.9598,1.9569,1.9514,1.9616,1.9656,1.9672,1.9454,1.9452,1.9451,1.945,0,0,1.9183,1.9225,1.9245,1.9266,1.9305,1.9352,1.9421,1.9473,1.9504,1.9543,1.9599,1.9679,1.965,1.9681,1.9675,1.9722,1.9822,1.9685,1.9686,1.9707,1.9939,1.9959,1.9978,1.9807,1.981,1.9813,1.9934,0,1.9313,1.9431,1.9424,1.9535,1.9589,1.9558,1.9617,1.9647,1.9655,1.9702,1.9711,1.9766,1.9726,1.9743,1.9788,1.98,1.9868,1.9792,1.9857,1.9859,1.9845,2.0,2.0023,2.0136,1.995,1.9952,1.9954,0,1.9481,1.9521,1.9637,1.9663,1.9685,1.9739,1.9783,1.983,1.9861,1.9863,1.9895,1.988,1.9948,1.9892,1.9982,1.9931,1.9957,1.9966,1.997,1.9975,1.9912,2.0005,2.0172,2.0188,1.9979,1.9977,1.9976,0,1.9592,1.9676,1.9755,1.9774,1.9807,1.9844,1.986,1.9888,1.9919,1.9958,1.9977,2.0025,2.005,2.0087,2.0084,2.0044,2.0175,2.012,2.0177,2.0177,2.0205,2.0203,2.0375,2.0226,2.0226,2.0226,2.0225,0,1.9737,1.9808,1.9804,1.9853,1.993,1.992,1.9997,2.0009,2.0033,2.0082,2.0059,2.0105,2.01,2.0146,2.0145,2.0217,2.0231,2.0233,2.0231,2.0233,2.0233,2.0249,2.024,2.023,2.0229,2.0228,2.0227,0,1.9875,1.9875,1.9958,1.9981,1.9988,2.0044,2.0063,2.0108,2.0113,2.0174,2.0188,2.0196,2.0248,2.0249,2.0311,2.0309,2.0397,2.0388,2.0386,2.0383,2.0438,2.0432,2.0626,2.0649,2.0487,2.0489,2.049,0,1.9966,2.0019,2.0046,2.0076,2.0093,2.0143,2.0172,2.0164,2.0195,2.0232,2.0272,2.0321,2.0361,2.0446,2.0456,2.0502,2.0492,2.0557,2.0499,2.0498,2.0489,2.0485,2.0488,2.0568,2.0569,2.0571,2.0572,0,2.0126,2.0122,2.0165,2.0207,2.0242,2.0275,2.0306,2.0332,2.0326,2.0362,2.0414,2.0444,2.0504,2.0553,2.0596,2.0611,2.059,2.059,2.0605,2.0607,2.0602,2.0602,2.0413,2.0586,2.0584,2.0583,2.0582,2.0582,2.0241,2.0285,2.0309,2.0356,2.0377,2.0405,2.0446,2.0454,2.0497,2.0544,2.0536,2.0594,2.062,2.0675,2.0693,2.0737,2.0715,2.0737,2.0743,2.0748,2.0752,2.0596,2.0745,2.0745,2.0745,2.0744,2.0744,0,2.0397,2.041,2.0453,2.0494,2.0531,2.0506,2.0537,2.0569,2.0619,2.0644,2.0682,2.0739,2.0785,2.0798,2.0841,2.0874,2.0865,2.0885,2.0882,2.0885,2.0772,2.0752,2.0891,2.0891,2.0891,2.0891,2.0891,2.0891,2.0482,2.0553,2.0552,2.0632,2.0645,2.0699,2.0718,2.0742,2.0762,2.0827,2.0864,2.0871,2.089,2.0934,2.0974,2.0977,2.0993,2.1016,2.1015,2.0908,2.0893,2.0879,2.0861,2.1021,2.1021,2.1124,2.1125,2.1125]}]]